Location: D�derode
(51.8092°N, 10.1065°E)
Time: 05:57:18
(UTC+00:00)

Cosmos 1933 - Pass Details

Date: 01 December 2020
Orbit: 546 x 564 km, 82.5° (Epoch: 23 January)

Event Time Altitude Azimuth Distance (km) Brightness Sun altitude
Rises 16:27:40 0° 180° (S) 2,725 7.2 -11.0°
Reaches altitude 10° 16:29:50 10° 177° (S) 1,838 6.2 -11.3°
Maximum altitude 16:33:50 62° 97° (E) 636 3.3 -11.9°
Drops below altitude 10° 16:37:53 10° 16° (NNE) 1,864 5.7 -12.5°
Enters shadow 16:39:07 - 15° (NNE) 2,370 6.2 -12.7°
